www.pogodaiklimat.ru

Погода и климат >> Архив погоды >> Великобритания >> Спадедэм


ПОГОДА в Спадедэме

  • Прогноз погоды в Спадедэме
  • Монитор погоды в Спадедэме

АРХИВ ПОГОДЫ в Спадедэме

Время (UTC), дата Ветер
(напр.,м/с)
 
Видим.   Явления Облачность Т
(С)
Тd
(С)
f
(%)
Тe
(С)
Тes
(С)
Комфортность P
(гПа)
Po
(гПа)
Тmin
(С)
Tmax
(С)
R
(мм)
R24
(мм)
S
(см)
19 10.06 СВ 6 45 км н/о +12.1 +7.1 71 +9 +9 1019.9 985.7
20 10.06 СВ 5 45 км н/о +10.6 +7.0 78 +8 +8 1020.6 986.2
21 10.06 СВ 4 50 км н/о +9.1 +6.7 85 +6 +6 1021.2 986.6
22 10.06 СВ 5 45 км н/о +9.2 +7.1 87 +6 +6 1020.9 986.4
23 10.06 СВ 6 50 км н/о +9.3 +6.7 84 +6 +6 1021.6 987.0
00 11.06 СВ 4 35 км ливневой дождь н/о +7.3 +6.0 91 +4 +4 1021.6 986.7 0.0
01 11.06 СВ 4 50 км н/о +6.4 +5.3 93 +2 +2 1021.5 986.5
02 11.06 СВ 4 50 км н/о +5.8 +4.8 93 +2 +2 1021.2 986.2
03 11.06 С 4 50 км н/о +5.4 +4.4 93 +1 +1 1021.4 986.4
04 11.06 СВ 3 50 км н/о +6.2 +4.9 91 +3 +3 1021.4 986.5
05 11.06 СВ 5 50 км н/о +6.6 +5.0 90 +2 +2 1021.5 986.6
06 11.06 СВ 6 50 км н/о +7.7 +5.4 85 +4 +4 1021.2 986.4 +5.2
07 11.06 СВ 6 50 км н/о +8.7 +5.3 79 +5 +5 1020.9 986.3
08 11.06 СВ 8
{15}
50 км н/о +9.2 +4.9 74 +5 +5 1020.6 986.0
09 11.06 СВ 8-13
{13}
50 км н/о +9.8 +5.0 72 +6 +6 1020.2 985.7
10 11.06 СВ 8-13
{13}
45 км н/о +10.1 +4.9 70 +6 +6 1020.3 985.9
11 11.06 СВ 7
{14}
45 км н/о +10.5 +5.0 69 +7 +7 1020.7 986.3
12 11.06 СВ 8
{13}
50 км н/о +9.7 +4.6 71 +6 +6 1021.0 986.5
13 11.06 СВ 8-13
{14}
40 км н/о +9.8 +4.8 71 +6 +6 1020.6 986.1
14 11.06 СВ 7
{13}
45 км н/о +9.8 +4.9 72 +6 +6 1020.6 986.1
15 11.06 СВ 7 45 км н/о +11.0 +5.3 68 +8 +8 1020.1 985.8
16 11.06 СВ 8-15
{16}
50 км н/о +11.2 +5.1 66 +8 +8 1019.9 985.6
17 11.06 СВ 8
{14}
35 км н/о +11.2 +6.0 70 +8 +8 1019.5 985.2
18 11.06 СВ 8
{14}
50 км н/о +10.1 +5.2 72 +6 +6 1019.5 985.1 +11.9
19 11.06 СВ 8-13
{13}
50 км н/о +9.6 +5.3 75 +6 +6 1019.3 984.9
20 11.06 СВ 5 50 км н/о +9.4 +5.8 78 +6 +6 1019.6 985.1
21 11.06 СВ 5
{13}
45 км н/о +8.7 +5.9 83 +5 +5 1019.5 985.0
22 11.06 СВ 7 50 км н/о +8.3 +5.7 84 +4 +4 1019.3 984.7
23 11.06 СВ 8 45 км н/о +8.2 +5.8 85 +4 +4 1018.8 984.2
00 12.06 СВ 7 35 км слаб. ливневой дождь н/о +8.4 +6.1 85 +4 +4 1018.3 983.7 0.0
01 12.06 СВ 8-13
{13}
12 км дождь н/о +7.6 +6.3 91 +3 +3 1017.6 982.9
02 12.06 С 8
{15}
30 км слаб. дождь н/о +7.4 +6.4 93 +2 +2 1016.4 981.8
03 12.06 С 10
{16}
28 км в посл. час дождь н/о +7.8 +6.6 92 +2 +2 1015.6 981.1
04 12.06 С 11-16
{16}
15 км н/о +8.2 +6.6 90 +3 +3 1015.2 980.7
05 12.06 СВ 10-16
{17}
13 км н/о +8.3 +6.7 90 +3 +3 1014.7 980.2
06 12.06 С 13-20
{20}
11 км н/о +8.3 +7.1 92 +2 +2 1014.4 980.0 +7.4 1
07 12.06 СВ 12-18
{20}
9000 м слаб. морось с дождем н/о +8.5 +7.4 93 +3 +3 1013.7 979.3
08 12.06 СВ 12-19
{20}
35 км в посл. час дождь н/о +9.3 +7.0 86 +4 +4 1013.2 978.9
09 12.06 СВ 11-16
{22}
50 км н/о +9.7 +7.2 84 +5 +5 1013.3 979.1
10 12.06 СВ 11-17
{19}
50 км н/о +9.9 +7.0 82 +5 +5 1013.9 979.7
11 12.06 С 13-20
{20}
45 км н/о +10.6 +7.8 83 +6 +6 1013.2 979.0
12 12.06 С 14-20
{20}
45 км н/о +10.7 +7.6 81 +6 +6 1012.1 978.0 0.0
13 12.06 С 14-20
{20}
45 км н/о +10.9 +8.0 82 +6 +6 1011.9 977.9
14 12.06 СВ 11
{17}
26 км н/о +10.5 +8.1 85 +6 +6 1011.7 977.6
15 12.06 С 12
{19}
26 км н/о +10.8 +8.5 86 +6 +6 1011.0 977.0
16 12.06 СВ 10-16
{17}
13 км н/о +10.7 +8.4 86 +6 +6 1010.6 976.5
17 12.06 СВ 7
{16}
5000 м слаб. ливневой дождь н/о +9.9 +9.2 95 +6 +6 1011.0 976.9
18 12.06 СВ 6-11
{14}
6000 м в посл. час дождь н/о +10.0 +9.3 95 +6 +6 1010.5 976.4 +12.0 0.4
19 12.06 СВ 6 6000 м ливневой дождь н/о +10.1 +9.4 95 +7 +7 1010.4 976.3
20 12.06 СВ 9
{13}
23 км дождь н/о +9.9 +9.1 95 +5 +5 1010.0 975.8
21 12.06 СВ 8
{13}
9000 м слаб. морось н/о +9.7 +9.1 96 +5 +5 1009.6 975.5
22 12.06 СВ 7-12
{13}
4800 м слаб. морось н/о +9.6 +9.0 96 +5 +5 1008.7 974.6
23 12.06 СВ 8
{14}
4500 м слаб. ливневой дождь н/о +9.4 +8.9 97 +5 +5 1008.5 974.3
00 13.06 СВ 8-13
{15}
8000 м слаб. дождь н/о +9.2 +8.5 95 +5 +5 1008.2 974.1 3
01 13.06 СВ 8
{15}
45 км слаб. дождь н/о +8.4 +7.7 95 +4 +4 1007.2 973.1
02 13.06 С 9
{14}
16 км дождь н/о +8.1 +7.4 95 +3 +3 1006.6 972.4
03 13.06 СВ 9
{13}
9000 м дождь н/о +7.8 +7.1 95 +3 +3 1005.9 971.7
04 13.06 СВ 9
{15}
13 км дождь н/о +7.5 +6.9 96 +2 +2 1005.3 971.1
05 13.06 СВ 10
{16}
16 км дождь н/о +7.3 +6.7 96 +2 +2 1005.1 970.8
06 13.06 С 12
{16}
13 км слаб. морось н/о +7.2 +6.4 95 +1 +1 1004.7 970.5 +7.2 11
07 13.06 С 11-17
{17}
40 км слаб. дождь н/о +6.9 +6.1 95 +1 +1 1004.4 970.2
08 13.06 С 10
{15}
27 км слаб. дождь н/о +6.6 +5.9 95 +1 +1 1004.2 969.9
09 13.06 С 9
{14}
7000 м дождь н/о +6.5 +5.8 95 +1 +1 1004.0 969.7
10 13.06 С 9
{13}
12 км дождь н/о +6.8 +6.0 95 +1 +1 1003.7 969.5
11 13.06 С 9
{14}
26 км дождь н/о +7.0 +6.0 93 +1 +1 1003.6 969.4
12 13.06 С 7 15 км дождь н/о +7.2 +6.3 94 +2 +2 1003.3 969.1 7
13 13.06 С 6 13 км дождь н/о +7.5 +6.6 94 +3 +3 1003.1 969.0
14 13.06 С 6 19 км дождь н/о +8.3 +7.2 93 +4 +4 1003.1 969.0
15 13.06 С 4 25 км слаб. дождь н/о +8.2 +6.6 90 +5 +5 1002.9 968.8
16 13.06 С 3 30 км дождь н/о +8.5 +6.5 87 +6 +6 1002.7 968.7
17 13.06 С 2 50 км слаб. дождь н/о +8.4 +6.4 87 +6 +6 1002.7 968.6
18 13.06 З 3 50 км в посл. час дождь н/о +8.8 +5.0 77 +7 +7 1002.5 968.6 +9.2 9
19 13.06 З 3 50 км н/о +8.3 +6.2 87 +6 +6 1002.8 968.7
20 13.06 ЮЗ 3 50 км н/о +7.7 +6.3 91 +5 +5 1003.0 968.9
21 13.06 ЮЗ 2 50 км н/о +7.5 +6.8 95 +5 +5 1003.7 969.6
22 13.06 ЮЗ 3 30 км н/о +7.3 +6.8 97 +4 +4 1004.0 969.8
23 13.06 ЮЗ 2 9000 м слаб. морось н/о +7.3 +6.9 97 +5 +5 1004.1 969.8
00 14.06 ЮЗ 3 14 км в посл. час дождь н/о +7.2 +6.9 98 +4 +4 1004.1 969.8 0.2
01 14.06 ЮЗ 3 13 км н/о +7.0 +6.8 99 +4 +4 1004.0 969.7
02 14.06 ЮЗ 3 7000 м дымка н/о +6.8 +6.5 98 +3 +3 1003.8 969.5
03 14.06 ЮЗ 3 2800 м дымка н/о +6.9 +6.7 99 +4 +4 1003.7 969.5
04 14.06 ЮЗ 3 12 км в посл. час дождь н/о +6.3 +6.0 98 +3 +3 1004.1 969.8
05 14.06 Ю 2 27 км н/о +6.0 +5.4 96 +3 +3 1004.5 970.2
06 14.06 Ю 2 45 км н/о +6.9 +6.0 94 +4 +4 1005.0 970.6 +5.9 0.4
07 14.06 Ю 3 40 км н/о +8.4 +6.4 87 +6 +6 1004.8 970.7
08 14.06 Ю 3 40 км н/о +8.9 +6.4 84 +6 +6 1005.2 971.1
09 14.06 Ю 4 35 км н/о +9.1 +6.2 82 +6 +6 1005.6 971.5
10 14.06 ЮВ 4 9000 м слаб. ливневой дождь н/о +8.1 +7.0 93 +5 +5 1006.1 971.9
11 14.06 Ю 3 45 км в посл. час дождь н/о +9.4 +7.9 90 +7 +7 1006.2 972.1
12 14.06 Ю 3 40 км н/о +10.6 +6.8 77 +9 +9 1006.0 972.1 0.2
13 14.06 ЮЗ 5 40 км н/о +12.5 +6.5 67 +10 +10 1006.0 972.4
14 14.06 ЮЗ 4 40 км н/о +12.2 +6.5 68 +10 +10 1006.5 972.8
15 14.06 ЮЗ 4 45 км н/о +13.8 +5.8 58 +13 +13 1006.6 973.0
16 14.06 Ю 6 45 км н/о +13.0 +5.4 60 +11 +11 1006.9 973.2
17 14.06 ЮЗ 6 50 км н/о +13.3 +4.4 55 +11 +11 1007.3 973.7
18 14.06 Ю 5 50 км н/о +12.8 +6.7 66 +11 +11 1007.7 974.0 +14.3 0.2
19 14.06 Ю 4 50 км н/о +12.2 +6.7 69 +10 +10 1008.0 974.2
20 14.06 ЮВ 2 50 км н/о +11.6 +7.3 75 +11 +11 1008.2 974.4
21 14.06 В 3 50 км н/о +11.1 +7.0 76 +9 +9 1008.7 974.7
22 14.06 В 3 50 км н/о +9.6 +7.1 84 +7 +7 1009.1 975.0
23 14.06 В 3 30 км слаб. морось с дождем н/о +9.2 +7.7 90 +7 +7 1009.2 975.0
00 15.06 СВ 2 45 км в посл. час дождь н/о +9.0 +7.9 93 +7 +7 1009.0 974.8 0.0
01 15.06 СВ 2 21 км н/о +8.6 +7.7 94 +7 +7 1009.2 975.0
02 15.06 В 2 13 км н/о +8.1 +7.6 97 +6 +6 1009.2 974.9
03 15.06 В 2 11 км н/о +7.8 +7.3 97 +6 +6 1009.0 974.6
04 15.06 штиль 0 20 км н/о +8.0 +7.7 98 +7 +7 1008.7 974.4
05 15.06 В 1 30 км н/о +8.2 +7.7 97 +7 +7 1008.6 974.4
06 15.06 ЮВ 3 40 км н/о +10.9 +8.2 83 +9 +9 1008.3 974.3 +7.1 0.0
07 15.06 ЮВ 3 40 км н/о +11.5 +7.7 77 +10 +10 1008.6 974.7
08 15.06 В 4 35 км н/о +12.3 +8.5 78 +11 +11 1008.2 974.4
09 15.06 ЮВ 4 35 км в посл. час дождь н/о +13.0 +9.3 78 +11 +11 1008.3 974.6
10 15.06 ЮВ 6 28 км в посл. час дождь н/о +14.8 +7.1 60 +13 +13 1008.0 974.5
11 15.06 Ю 5 50 км н/о +13.7 +8.6 71 +12 +12 1008.3 974.7
12 15.06 Ю 5 50 км н/о +13.0 +8.7 75 +11 +11 1008.6 974.9 0.0
13 15.06 Ю 3 45 км н/о +14.1 +9.4 73 +13 +13 1008.4 974.8
14 15.06 ЮЗ 7 50 км н/о +14.5 +8.9 69 +12 +12 1008.3 974.8
15 15.06 Ю 4 50 км в посл. час дождь н/о +12.3 +10.3 88 +10 +10 1009.0 975.2
16 15.06 ЮЗ 4 29 км слаб. дождь н/о +12.4 +9.5 82 +11 +11 1009.3 975.5
17 15.06 З 4 45 км слаб. ливневой дождь н/о +11.5 +7.9 79 +9 +9 1009.2 975.3
18 15.06 Ю 2 40 км в посл. час дождь н/о +11.6 +8.4 81 +10 +10 1009.1 975.2 +15.2 0.4
19 15.06 Ю 1 35 км н/о +11.7 +7.7 76 +12 +12 1009.1 975.2
20 15.06 З 3 45 км н/о +10.9 +8.2 83 +9 +9 1009.5 975.5
21 15.06 З 3 50 км н/о +8.6 +4.8 77 +6 +6 1010.1 975.8
22 15.06 З 3 50 км н/о +7.2 +3.9 80 +4 +4 1010.4 976.0
23 15.06 ЮЗ 5 50 км н/о +6.6 +3.6 81 +3 +3 1010.8 976.2
00 16.06 ЮЗ 4 50 км н/о +6.1 +3.4 83 +3 +3 1010.9 976.3
01 16.06 ЮЗ 4 50 км н/о +4.6 +2.7 87 +1 +1 1010.8 976.0
02 16.06 ЮЗ 3 50 км н/о +4.4 +2.6 88 +1 +1 1010.9 976.1
03 16.06 ЮЗ 5 45 км н/о +5.4 +4.0 91 +1 +1 1010.5 975.8
04 16.06 В 1 50 км н/о +4.8 +3.3 90 +5 +5 1010.8 976.0
05 16.06 ЮЗ 3 40 км н/о +6.2 +4.9 91 +3 +3 1010.7 976.1
06 16.06 Ю 1 45 км н/о +8.3 +6.0 85 +8 +8 1010.7 976.4 +3.5
07 16.06 Ю 3 50 км н/о +9.5 +6.1 79 +7 +7 1010.7 976.5
08 16.06 Ю 7 50 км н/о +11.0 +6.5 74 +8 +8 1010.7 976.7
09 16.06 ЮЗ 8 40 км н/о +11.8 +6.8 71 +9 +9 1010.6 976.7
10 16.06 Ю 8 50 км н/о +12.6 +6.6 67 +10 +10 1010.6 976.8
11 16.06 ЮЗ 7 45 км н/о +12.5 +6.8 68 +10 +10 1010.7 976.9
12 16.06 ЮЗ 7 50 км н/о +13.7 +7.4 66 +12 +12 1010.5 976.9
13 16.06 ЮЗ 7 35 км н/о +14.8 +7.2 60 +13 +13 1010.5 976.9
14 16.06 ЮЗ 6 40 км н/о +14.1 +8.2 68 +12 +12 1010.3 976.7
15 16.06 ЮЗ 6 50 км н/о +14.0 +5.4 56 +12 +12 1010.3 976.7
16 16.06 ЮЗ 4 19 км слаб. ливневой дождь н/о +10.9 +9.9 94 +8 +8 1010.9 976.9
17 16.06 Ю 3 45 км в посл. час дождь н/о +12.4 +10.2 86 +11 +11 1010.2 976.4
18 16.06 ЮЗ 6 50 км н/о +12.0 +8.4 79 +9 +9 1010.0 976.2 +16.6 0.8
19 16.06 Ю 5 40 км н/о +12.0 +7.8 75 +10 +10 1010.0 976.2
20 16.06 Ю 4 12 км ливневой дождь н/о +10.8 +9.1 89 +8 +8 1009.9 975.9
21 16.06 Ю 3 16 км слаб. дождь н/о +10.2 +9.9 98 +8 +8 1009.5 975.5
22 16.06 Ю 4 30 км слаб. ливневой дождь н/о +11.1 +10.8 98 +8 +8 1008.9 975.0
23 16.06 ЮЗ 9
{13}
30 км слаб. морось с дождем н/о +11.4 +10.9 97 +8 +8 1008.6 974.8
00 17.06 0 50 км в посл. час дождь н/о +11.0 +10.4 96 1008.5 974.5 4
01 17.06 ЮЗ 5 35 км н/о +10.3 +9.5 95 +7 +7 1009.0 974.9
02 17.06 ЮЗ 5 16 км слаб. морось с дождем н/о +10.1 +9.0 93 +7 +7 1008.9 974.9
03 17.06 0 27 км в посл. час дождь н/о +9.9 +9.2 95 1009.2 975.1
04 17.06 ЮЗ 3 14 км н/о +9.4 +9.0 97 +7 +7 1009.6 975.4
05 17.06 ЮЗ 3 13 км н/о +9.6 +9.3 98 +7 +7 1009.8 975.7
06 17.06 ЮЗ 6 18 км н/о +10.3 +9.4 94 +7 +7 1010.0 975.9 +9.3 4
07 17.06 ЮЗ 6 26 км н/о +11.3 +9.9 91 +8 +8 1010.3 976.3
08 17.06 ЮЗ 6 26 км н/о +13.3 +11.3 88 +11 +11 1009.9 976.2
09 17.06 ЮЗ 9-15
{15}
35 км н/о +13.6 +9.1 74 +11 +11 1010.2 976.5
10 17.06 ЮЗ 6 35 км в посл. час дождь н/о +12.8 +9.0 78 +10 +10 1010.5 976.7
11 17.06 ЮЗ 9-14
{14}
30 км н/о +14.1 +8.2 68 +12 +12 1010.5 976.8
12 17.06 ЮЗ 11
{15}
40 км н/о +15.3 +7.9 61 +13 +13 1010.3 976.8 0.0
13 17.06 ЮЗ 10
{16}
40 км н/о +15.7 +8.1 61 +14 +14 1010.6 977.1
14 17.06 ЮЗ 11
{16}
50 км н/о +15.9 +7.7 58 +14 +14 1010.6 977.1
15 17.06 ЮЗ 11-18
{18}
40 км н/о +16.0 +8.2 60 +14 +14 1010.4 977.0
16 17.06 ЮЗ 10
{16}
45 км н/о +15.0 +7.4 60 +13 +13 1010.6 977.0
17 17.06 ЮЗ 9
{13}
35 км н/о +15.5 +7.8 60 +13 +13 1010.7 977.2
18 17.06 ЮЗ 8
{13}
40 км н/о +14.1 +7.2 63 +12 +12 1011.0 977.3 +16.7 0.0
19 17.06 ЮЗ 7 45 км н/о +13.1 +7.0 66 +11 +11 1011.2 977.4
20 17.06 ЮЗ 5 35 км н/о +12.1 +7.7 74 +10 +10 1011.5 977.6

 

Местоположение метеостанции Спадедэм (Великобритания): широта 55.05 долгота -2.55 высота над уровнем моря 286 м.

В архиве по умолчанию представлена погода в Спадедэме за последнюю неделю. Архивные данные за месяц целиком и за предыдущие месяцы, начиная с января 2011 года, Вы можете получить, выбрав интересующий диапазон дат из раскрывающегося списка и нажав кнопку "Ввод!".


*Определитесь, кто Вы:
робот инопланетянин человек

Внимание! Время в таблицах - всемирное. Для получения местного времени необходимо прибавить поправку, которая равна 0 ч.

Смотрите также архив погоды в соседних городах и на ближайших метеорологических станциях:

Погода в Карлайле (Великобритания) (30 км)
Погода в Лагере Redesdale (Великобритания) (31 км)
Погода в Грэйт Дан Фелле (Великобритания) (42 км)
Погода в Альбермарле (Великобритания) (43 км)
Погода в Эскдейлмьюире (Великобритания) (51 км)
Погода в Варкопе (Великобритания) (54 км)
Погода в Шапе (Великобритания) (62 км)
Погода в Кесвике (Великобритания) (62 км)
Погода в Боулмере (Великобритания) (73 км)
Погода в Чартерхолле (Великобритания) (73 км)

Пояснения к столбцам:

Ветер - указаны скорость ветра в м/с - средняя за 10 мин, порывы в срок и между сроками (в фигурных скобках) и направление, откуда дует ветер: С - северный, СВ - северо-восточный, В - восточный, ЮВ - юго-восточный, Ю - южный, ЮЗ - юго-западный, З - западный, СЗ - северо-западный.
Видимость - горизонтальная дальность видимости в метрах или километрах. При видимости от 1 до 10 км при отсутствии осадков обычно наблюдается дымка, при ухудшении видимости до 1 км и менее - туман. В сухую погоду видимость может ухудшаться дымом, пылью или мглою.
Явления - указаны атмосферные явления, наблюдавшиеся в срок или в последний час перед сроком; фигурными скобками обозначены явления, наблюдавшиеся между сроками (за 1-3 часа до срока); квадратными скобками обозначены град или гололедные отложения с указанием их диаметра в мм.
Облачность - указаны через наклонную черту общая и нижняя облачность в баллах и высота нижней границы облаков в метрах; квадратными скобками обозначены формы облаков: Ci - перистые, Cs - перисто-слоистые, Cc - перисто-кучевые, Ac - высококучевые, As - высокослоистые, Sc - слоисто-кучевые, Ns - слоисто-дождевые, Cu - кучевые, Cb - кучево-дождевые. Подробнее классификацию облаков см. в Атласе облаков (PDF).
T - Температура воздуха - температура, измеренная на высоте 2 м над землей.
Td - Температура точки росы - температура, при понижении до которой содержащийся в воздухе водяной пар достигнет насыщения.
f - Относительная влажность воздуха - влажноcть воздуха, измеренная на высоте 2 м над землей.
Te - Эффективная температура - температура, которую ощущает одетый по сезону человек в тени. Характеристика душности погоды. При расчете учитывается влияние влажности воздуха и скорости ветра на теплоощущения человека.
Tes - Эффективная температура на солнце - температура, которую ощущает человек, с поправкой на солнечный нагрев. Характеристика знойности погоды. Зависит от высоты солнца над горизонтом, облачности и скорости ветра. Ночью, в пасмурную погоду, а также при ветре 12 м/с и более поправка равна нулю.
P - Атмосферное давление - приведенное к уровню моря атмосферное давление.
Po - Атмосферное давление - измеренное на уровне метеостанции атмосферное давление.
Tmin - Минимальная температура - минимум температуры воздуха на высоте 2 м над землей.
Tmax - Максимальная температура - максимум температуры воздуха на высоте 2 м над землей.
R - Количество осадков - Количество выпавших осадков за период времени, мм. При наведении курсора мыши на число - период времени, за который выпало указанное количество осадков.
R24 - Количество осадков - Количество выпавших осадков за 24 часа, мм.
S - Снежный покров - Высота снежного покрова, см. При наведении курсора мыши на число - состояние снежного покрова и степень покрытия местности в баллах.